,,Stat6,,Stat2,,Stat8,,Stat9,,Stat10,,Wind1,,Wind1,
time,status,PA1M_AVG,status,PR1M_SUM,status,RH1M_AVG,status,SR1M_AVG,status,TA1M_AVG,status,W1dAve1m,status,W1sAve1m,
2004-06-24, 00:00:00,VALID,918.954,VALID,0,VALID,98.5964,VALID,-0.0849042,VALID,16.8048,VALID,48,VALID,0.299419,
2004-06-24, 00:01:00,VALID,918.956,VALID,0,VALID,98.7426,VALID,-0.0849042,VALID,16.7757,VALID,48,VALID,0.142485,
2004-06-24, 00:02:00,VALID,918.956,VALID,0,VALID,98.8393,VALID,-0.101885,VALID,16.7792,VALID,48,VALID,0.33125,
2004-06-24, 00:03:00,VALID,918.954,VALID,0,VALID,98.5074,VALID,-0.0509425,VALID,16.7174,VALID,48,VALID,0.452925,
2004-06-24, 00:04:00,VALID,918.934,VALID,0,VALID,98.3993,VALID,-0.0679233,VALID,16.6271,VALID,50,VALID,0.775036,
2004-06-24, 00:05:00,VALID,918.935,VALID,0,VALID,99.7566,VALID,-0.0849042,VALID,16.74,VALID,62,VALID,0.990513,
2004-06-24, 00:06:00,VALID,918.941,VALID,0,VALID,100,VALID,-0.0679233,VALID,16.876,VALID,68,VALID,1.07422,
2004-06-24, 00:07:00,VALID,918.92,VALID,0,VALID,100,VALID,-0.0679233,VALID,16.9173,VALID,68,VALID,0.94351,
2004-06-24, 00:08:00,VALID,918.919,VALID,0,VALID,99.9741,VALID,0.0339617,VALID,16.9354,VALID,65,VALID,0.820884,
2004-06-24, 00:09:00,VALID,918.888,VALID,0,VALID,99.4153,VALID,0,VALID,16.8842,VALID,52,VALID,0.959121,
2004-06-24, 00:10:00,VALID,918.875,VALID,0,VALID,98.3904,VALID,0.0509425,VALID,16.7134,VALID,51,VALID,0.933966,
2004-06-24, 00:11:00,VALID,918.868,VALID,0,VALID,97.8245,VALID,0.0169808,VALID,16.5392,VALID,48,VALID,1.00149,
2004-06-24, 00:12:00,VALID,918.849,VALID,0,VALID,98.501,VALID,0,VALID,16.494,VALID,47,VALID,0.889915,
2004-06-24, 00:13:00,VALID,918.838,VALID,0,VALID,98.894,VALID,0.0339617,VALID,16.4845,VALID,47,VALID,0.898268,
2004-06-24, 00:14:00,VALID,918.837,VALID,0,VALID,99.7337,VALID,0,VALID,16.5646,VALID,47,VALID,0.995561,
2004-06-24, 00:15:00,VALID,918.845,VALID,0,VALID,100,VALID,0.0169808,VALID,16.7295,VALID,52,VALID,0.967507,
2004-06-24, 00:16:00,VALID,918.843,VALID,0,VALID,99.9738,VALID,0,VALID,16.8071,VALID,59,VALID,0.918713,
2004-06-24, 00:17:00,VALID,918.836,VALID,0,VALID,99.7536,VALID,0.0169808,VALID,16.7648,VALID,59,VALID,0.939844,
2004-06-24, 00:18:00,VALID,918.845,VALID,0,VALID,99.3517,VALID,0,VALID,16.7037,VALID,60,VALID,0.874822,
2004-06-24, 00:19:00,VALID,918.825,VALID,0,VALID,99.8741,VALID,0.0339617,VALID,16.7585,VALID,61,VALID,0.806141,
2004-06-24, 00:20:00,VALID,918.82,VALID,0,VALID,100,VALID,0.0169808,VALID,16.8487,VALID,66,VALID,0.804116,
2004-06-24, 00:21:00,VALID,918.812,VALID,0,VALID,100,VALID,-0.0509425,VALID,16.9461,VALID,78,VALID,0.580031,
2004-06-24, 00:22:00,VALID,918.797,VALID,0,VALID,100,VALID,-0.0509425,VALID,17.0405,VALID,78,VALID,0.662287,
2004-06-24, 00:23:00,VALID,918.794,VALID,0,VALID,99.9825,VALID,-0.0509425,VALID,17.0721,VALID,78,VALID,0.54809,
2004-06-24, 00:24:00,VALID,918.788,VALID,0,VALID,99.4598,VALID,-0.0849042,VALID,17.0534,VALID,78,VALID,0.39335,
2004-06-24, 00:25:00,VALID,918.793,VALID,0,VALID,99.072,VALID,-0.0509425,VALID,16.9824,VALID,78,VALID,0.279687,
2004-06-24, 00:26:00,VALID,918.801,VALID,0,VALID,98.9499,VALID,-0.0849042,VALID,16.9469,VALID,78,VALID,0.0963542,
2004-06-24, 00:27:00,VALID,918.782,VALID,0,VALID,98.7999,VALID,-0.0849042,VALID,16.905,VALID,78,VALID,0.284784,
2004-06-24, 00:28:00,VALID,918.763,VALID,0,VALID,98.6206,VALID,-0.101885,VALID,16.8536,VALID,78,VALID,0.255766,
2004-06-24, 00:29:00,VALID,918.726,VALID,0,VALID,98.7312,VALID,-0.0849042,VALID,16.8144,VALID,78,VALID,0.395894,
2004-06-24, 00:30:00,VALID,918.711,VALID,0,VALID,98.8711,VALID,-0.0509425,VALID,16.7981,VALID,78,VALID,0.300495,
2004-06-24, 00:31:00,VALID,918.674,VALID,0,VALID,98.969,VALID,-0.0849042,VALID,16.7856,VALID,78,VALID,0.26734,
2004-06-24, 00:32:00,VALID,918.637,VALID,0,VALID,99.3683,VALID,-0.0679233,VALID,16.8147,VALID,78,VALID,0.186612,
2004-06-24, 00:33:00,VALID,918.605,VALID,0,VALID,99.3377,VALID,-0.0679233,VALID,16.8276,VALID,78,VALID,0.019077,
2004-06-24, 00:34:00,VALID,918.61,VALID,0,VALID,98.7465,VALID,-0.101885,VALID,16.7568,VALID,78,VALID,0.129261,
2004-06-24, 00:35:00,VALID,918.592,VALID,0,VALID,98.7948,VALID,-0.0849042,VALID,16.6761,VALID,78,VALID,0.339674,
2004-06-24, 00:36:00,VALID,918.583,VALID,0,VALID,99.3517,VALID,0.0339617,VALID,16.7,VALID,78,VALID,0.333934,
2004-06-24, 00:37:00,VALID,918.592,VALID,0,VALID,99.1813,VALID,0.101885,VALID,16.6968,VALID,78,VALID,0.0643601,
2004-06-24, 00:38:00,VALID,918.578,VALID,0,VALID,98.9245,VALID,0.0679233,VALID,16.6385,VALID,81,VALID,0.340625,
2004-06-24, 00:39:00,VALID,918.571,VALID,0,VALID,98.7808,VALID,0.0679233,VALID,16.577,VALID,96,VALID,0.335417,
2004-06-24, 00:40:00,VALID,918.549,VALID,0,VALID,98.9931,VALID,0.101885,VALID,16.5351,VALID,96,VALID,0.485283,
2004-06-24, 00:41:00,VALID,918.524,VALID,0,VALID,98.7121,VALID,0.0679233,VALID,16.5,VALID,89,VALID,0.556076,
2004-06-24, 00:42:00,VALID,918.505,VALID,0,VALID,98.0318,VALID,0.101885,VALID,16.348,VALID,64,VALID,0.824219,
2004-06-24, 00:43:00,VALID,918.479,VALID,0,VALID,98.6905,VALID,0.0679233,VALID,16.3155,VALID,63,VALID,0.863758,
2004-06-24, 00:44:00,VALID,918.476,VALID,0,VALID,99.2704,VALID,0.0509425,VALID,16.3936,VALID,63,VALID,0.611111,
2004-06-24, 00:45:00,VALID,918.46,VALID,0,VALID,99.6885,VALID,0.0849042,VALID,16.4129,VALID,63,VALID,0.625727,
2004-06-24, 00:46:00,VALID,918.447,VALID,0,VALID,99.9552,VALID,0.0849042,VALID,16.4841,VALID,63,VALID,0.388626,
2004-06-24, 00:47:00,VALID,918.439,VALID,0,VALID,99.9802,VALID,0.0849042,VALID,16.5418,VALID,63,VALID,0.503239,
2004-06-24, 00:48:00,VALID,918.414,VALID,0,VALID,99.9725,VALID,0.101885,VALID,16.6065,VALID,63,VALID,0.53234,
2004-06-24, 00:49:00,VALID,918.391,VALID,0,VALID,99.1775,VALID,0.0849042,VALID,16.4671,VALID,63,VALID,0.525073,
2004-06-24, 00:50:00,VALID,918.374,VALID,0,VALID,98.7782,VALID,0.101885,VALID,16.3551,VALID,55,VALID,0.523438,
2004-06-24, 00:51:00,VALID,918.385,VALID,0,VALID,99.1508,VALID,0.0169808,VALID,16.3496,VALID,55,VALID,0.368712,
2004-06-24, 00:52:00,VALID,918.387,VALID,0,VALID,99.2525,VALID,-0.0169808,VALID,16.3529,VALID,55,VALID,0.0625,
2004-06-24, 00:53:00,VALID,918.377,VALID,0,VALID,99.3288,VALID,-0.0339617,VALID,16.34,VALID,55,VALID,0,
2004-06-24, 00:54:00,VALID,918.374,VALID,0,VALID,99.4967,VALID,-0.0169808,VALID,16.3561,VALID,55,VALID,0,
2004-06-24, 00:55:00,VALID,918.36,VALID,0,VALID,99.8802,VALID,-0.0169808,VALID,16.4081,VALID,55,VALID,0,
2004-06-24, 00:56:00,VALID,918.361,VALID,0,VALID,100,VALID,0,VALID,16.4978,VALID,55,VALID,0,
2004-06-24, 00:57:00,VALID,918.335,VALID,0,VALID,100,VALID,-0.0339617,VALID,16.637,VALID,55,VALID,0,
2004-06-24, 00:58:00,VALID,918.343,VALID,0,VALID,100,VALID,-0.0169808,VALID,16.7114,VALID,55,VALID,0,
2004-06-24, 00:59:00,VALID,918.337,VALID,0,VALID,100,VALID,-0.0339617,VALID,16.7458,VALID,55,VALID,0,
2004-06-24, 01:00:00,VALID,918.336,VALID,0,VALID,100,VALID,-0.0679233,VALID,16.7953,VALID,55,VALID,0,
2004-06-24, 01:01:00,VALID,918.341,VALID,0,VALID,100,VALID,-0.0339617,VALID,16.8501,VALID,55,VALID,0.0784801,
2004-06-24, 01:02:00,VALID,918.31,VALID,0,VALID,100,VALID,-0.0169808,VALID,16.8818,VALID,55,VALID,0.250762,
2004-06-24, 01:03:00,VALID,918.306,VALID,0,VALID,100,VALID,-0.0509425,VALID,16.9112,VALID,55,VALID,0.467862,
2004-06-24, 01:04:00,VALID,918.284,VALID,0,VALID,99.9181,VALID,-0.0169808,VALID,16.8723,VALID,55,VALID,0.59282,
2004-06-24, 01:05:00,VALID,918.281,VALID,0,VALID,99.4408,VALID,-0.0339617,VALID,16.7785,VALID,55,VALID,0.541667,
2004-06-24, 01:06:00,VALID,918.285,VALID,0,VALID,99.7002,VALID,0.0339617,VALID,16.7588,VALID,55,VALID,0.569949,
2004-06-24, 01:07:00,VALID,918.288,VALID,0,VALID,99.9964,VALID,0.0509425,VALID,16.8521,VALID,55,VALID,0.457217,
2004-06-24, 01:08:00,VALID,918.287,VALID,0,VALID,100,VALID,0.0679233,VALID,16.9227,VALID,55,VALID,0.526367,
2004-06-24, 01:09:00,VALID,918.289,VALID,0,VALID,100,VALID,0.0509425,VALID,17.0065,VALID,55,VALID,0.402435,
2004-06-24, 01:10:00,VALID,918.289,VALID,0,VALID,99.7152,VALID,0.0509425,VALID,17.0418,VALID,58,VALID,0.448038,
2004-06-24, 01:11:00,VALID,918.304,VALID,0,VALID,99.0135,VALID,0.0679233,VALID,17.0007,VALID,73,VALID,0.40625,
2004-06-24, 01:12:00,VALID,918.313,VALID,0,VALID,98.384,VALID,0.101885,VALID,16.9224,VALID,74,VALID,0.456101,
2004-06-24, 01:13:00,VALID,918.32,VALID,0,VALID,98.0598,VALID,0.0849042,VALID,16.839,VALID,105,VALID,0.725991,
2004-06-24, 01:14:00,VALID,918.335,VALID,0,VALID,97.9377,VALID,0.0679233,VALID,16.7682,VALID,116,VALID,0.219113,
2004-06-24, 01:15:00,VALID,918.346,VALID,0,VALID,98.0229,VALID,0.0849042,VALID,16.7031,VALID,116,VALID,0.139672,
2004-06-24, 01:16:00,VALID,918.341,VALID,0,VALID,98.2048,VALID,0.0509425,VALID,16.6613,VALID,116,VALID,0.0748981,
2004-06-24, 01:17:00,VALID,918.338,VALID,0,VALID,98.3294,VALID,0.0679233,VALID,16.6458,VALID,116,VALID,0.0152778,
2004-06-24, 01:18:00,VALID,918.323,VALID,0,VALID,98.7363,VALID,0.0339617,VALID,16.6486,VALID,116,VALID,0.0961119,
2004-06-24, 01:19:00,VALID,918.295,VALID,0,VALID,98.8571,VALID,0.0679233,VALID,16.6648,VALID,116,VALID,0,
2004-06-24, 01:20:00,VALID,918.284,VALID,0,VALID,98.9575,VALID,0.101885,VALID,16.6712,VALID,116,VALID,0,
2004-06-24, 01:21:00,VALID,918.281,VALID,0,VALID,99.3708,VALID,-0.0339617,VALID,16.7338,VALID,116,VALID,0,
2004-06-24, 01:22:00,VALID,918.262,VALID,0,VALID,99.868,VALID,-0.0339617,VALID,16.808,VALID,116,VALID,0.280107,
2004-06-24, 01:23:00,VALID,918.245,VALID,0,VALID,99.7993,VALID,-0.0849042,VALID,16.8465,VALID,116,VALID,0.359557,
2004-06-24, 01:24:00,VALID,918.227,VALID,0,VALID,99.5654,VALID,-0.0509425,VALID,16.8336,VALID,116,VALID,0.503806,
2004-06-24, 01:25:00,VALID,918.188,VALID,0,VALID,99.3441,VALID,-0.0339617,VALID,16.7757,VALID,116,VALID,0.566964,
2004-06-24, 01:26:00,VALID,918.173,VALID,0,VALID,99.3276,VALID,-0.0339617,VALID,16.7209,VALID,116,VALID,0.754972,
2004-06-24, 01:27:00,VALID,918.163,VALID,0,VALID,99.4395,VALID,-0.0679233,VALID,16.6819,VALID,121,VALID,0.933117,
2004-06-24, 01:28:00,VALID,918.151,VALID,0,VALID,99.5781,VALID,-0.0679233,VALID,16.6794,VALID,132,VALID,1.06359,
2004-06-24, 01:29:00,VALID,918.157,VALID,0,VALID,99.7675,VALID,-0.0339617,VALID,16.666,VALID,133,VALID,1.23228,
2004-06-24, 01:30:00,VALID,918.151,VALID,0,VALID,99.9781,VALID,-0.0509425,VALID,16.6854,VALID,130,VALID,1.38616,
2004-06-24, 01:31:00,VALID,918.134,VALID,0,VALID,99.9303,VALID,-0.0169808,VALID,16.6884,VALID,128,VALID,1.4537,
2004-06-24, 01:32:00,VALID,918.125,VALID,0,VALID,99.855,VALID,-0.0169808,VALID,16.6729,VALID,122,VALID,1.49063,
2004-06-24, 01:33:00,VALID,918.125,VALID,0,VALID,100,VALID,-0.0509425,VALID,16.6953,VALID,121,VALID,1.51211,
2004-06-24, 01:34:00,VALID,918.126,VALID,0,VALID,100,VALID,-0.0169808,VALID,16.7398,VALID,126,VALID,1.41295,
2004-06-24, 01:35:00,VALID,918.136,VALID,0,VALID,99.645,VALID,-0.0679233,VALID,16.6882,VALID,88,VALID,0.567882,
2004-06-24, 01:36:00,VALID,918.131,VALID,0,VALID,98.9194,VALID,-0.0339617,VALID,16.5051,VALID,48,VALID,0.849609,
2004-06-24, 01:37:00,VALID,918.136,VALID,0,VALID,99.8202,VALID,-0.0679233,VALID,16.5051,VALID,108,VALID,1.02544,
2004-06-24, 01:38:00,VALID,918.137,VALID,0,VALID,100,VALID,-0.0679233,VALID,16.6376,VALID,118,VALID,1.00345,
2004-06-24, 01:39:00,VALID,918.161,VALID,0,VALID,99.9967,VALID,-0.0509425,VALID,16.689,VALID,126,VALID,0.669141,
2004-06-24, 01:40:00,VALID,918.151,VALID,0,VALID,99.9062,VALID,-0.0169808,VALID,16.6602,VALID,137,VALID,0.512429,
2004-06-24, 01:41:00,VALID,918.156,VALID,0,VALID,99.8464,VALID,-0.0679233,VALID,16.6245,VALID,136,VALID,0.540737,
2004-06-24, 01:42:00,VALID,918.159,VALID,0,VALID,99.7993,VALID,-0.0679233,VALID,16.6019,VALID,134,VALID,0.430051,
2004-06-24, 01:43:00,VALID,918.176,VALID,0,VALID,99.6658,VALID,-0.0679233,VALID,16.5697,VALID,134,VALID,0.148624,
2004-06-24, 01:44:00,VALID,918.189,VALID,0,VALID,99.6493,VALID,-0.0679233,VALID,16.5408,VALID,134,VALID,0,
2004-06-24, 01:45:00,VALID,918.203,VALID,0,VALID,99.7243,VALID,-0.0679233,VALID,16.5049,VALID,134,VALID,0.0755208,
2004-06-24, 01:46:00,VALID,918.214,VALID,0,VALID,99.8693,VALID,-0.0509425,VALID,16.5213,VALID,134,VALID,0.0323661,
2004-06-24, 01:47:00,VALID,918.213,VALID,0,VALID,99.984,VALID,-0.0339617,VALID,16.5565,VALID,134,VALID,0.148056,
2004-06-24, 01:48:00,VALID,918.221,VALID,0,VALID,100,VALID,-0.0339617,VALID,16.6211,VALID,136,VALID,0.450521,
2004-06-24, 01:49:00,VALID,918.204,VALID,0,VALID,100,VALID,-0.0509425,VALID,16.7183,VALID,160,VALID,0.454459,
2004-06-24, 01:50:00,VALID,918.2,VALID,0,VALID,100,VALID,-0.0169808,VALID,16.802,VALID,160,VALID,0.349201,
2004-06-24, 01:51:00,VALID,918.174,VALID,0,VALID,100,VALID,-0.0509425,VALID,16.8639,VALID,160,VALID,0.406064,
2004-06-24, 01:52:00,VALID,918.146,VALID,0,VALID,100,VALID,-0.0169808,VALID,16.8891,VALID,160,VALID,0.602412,
2004-06-24, 01:53:00,VALID,918.138,VALID,0,VALID,100,VALID,-0.0679233,VALID,16.8988,VALID,163,VALID,0.721168,
2004-06-24, 01:54:00,VALID,918.128,VALID,0,VALID,100,VALID,-0.0679233,VALID,16.8925,VALID,168,VALID,0.796026,
2004-06-24, 01:55:00,VALID,918.114,VALID,0,VALID,99.999,VALID,-0.0169808,VALID,16.857,VALID,168,VALID,0.773438,
2004-06-24, 01:56:00,VALID,918.095,VALID,0,VALID,99.826,VALID,-0.0169808,VALID,16.7759,VALID,162,VALID,0.603924,
2004-06-24, 01:57:00,VALID,918.083,VALID,0,VALID,99.6531,VALID,-0.0339617,VALID,16.708,VALID,161,VALID,0.453125,
2004-06-24, 01:58:00,VALID,918.07,VALID,0,VALID,99.5857,VALID,-0.0339617,VALID,16.6404,VALID,158,VALID,0.619792,
2004-06-24, 01:59:00,VALID,918.064,VALID,0,VALID,99.6442,VALID,-0.0849042,VALID,16.6049,VALID,152,VALID,0.554869,
2004-06-24, 02:00:00,VALID,918.062,VALID,0,VALID,99.7536,VALID,-0.0679233,VALID,16.5789,VALID,152,VALID,0.508539,
2004-06-24, 02:01:00,VALID,918.069,VALID,0,VALID,99.8629,VALID,-0.0509425,VALID,16.5989,VALID,150,VALID,0.226736,
2004-06-24, 02:02:00,VALID,918.066,VALID,0,VALID,99.7739,VALID,0,VALID,16.5789,VALID,150,VALID,0.338672,
2004-06-24, 02:03:00,VALID,918.073,VALID,0,VALID,99.5132,VALID,-0.0509425,VALID,16.5271,VALID,148,VALID,0.605114,
2004-06-24, 02:04:00,VALID,918.075,VALID,0,VALID,99.2729,VALID,-0.0679233,VALID,16.4761,VALID,148,VALID,0.619731,
2004-06-24, 02:05:00,VALID,918.086,VALID,0,VALID,99.3466,VALID,-0.0679233,VALID,16.4148,VALID,147,VALID,0.689024,
2004-06-24, 02:06:00,VALID,918.1,VALID,0,VALID,99.8194,VALID,-0.0509425,VALID,16.4281,VALID,145,VALID,0.769055,
2004-06-24, 02:07:00,VALID,918.112,VALID,0,VALID,100,VALID,-0.0509425,VALID,16.489,VALID,144,VALID,0.819648,
2004-06-24, 02:08:00,VALID,918.116,VALID,0,VALID,100,VALID,-0.0509425,VALID,16.5759,VALID,137,VALID,0.922965,
2004-06-24, 02:09:00,VALID,918.115,VALID,0,VALID,100,VALID,-0.0849042,VALID,16.6598,VALID,137,VALID,1.02121,
2004-06-24, 02:10:00,VALID,918.119,VALID,0,VALID,100,VALID,-0.0509425,VALID,16.7505,VALID,135,VALID,1.04954,
2004-06-24, 02:11:00,VALID,918.108,VALID,0,VALID,100,VALID,-0.0339617,VALID,16.8185,VALID,134,VALID,0.608665,
2004-06-24, 02:12:00,VALID,918.114,VALID,0,VALID,100,VALID,-0.0339617,VALID,16.8342,VALID,134,VALID,0.413318,
2004-06-24, 02:13:00,VALID,918.11,VALID,0,VALID,100,VALID,-0.0679233,VALID,16.8372,VALID,134,VALID,0.359557,
2004-06-24, 02:14:00,VALID,918.11,VALID,0,VALID,100,VALID,-0.0679233,VALID,16.8467,VALID,134,VALID,0.525112,
2004-06-24, 02:15:00,VALID,918.121,VALID,0,VALID,100,VALID,-0.101885,VALID,16.8439,VALID,134,VALID,0.691134,
2004-06-24, 02:16:00,VALID,918.136,VALID,0,VALID,100,VALID,-0.0509425,VALID,16.8469,VALID,139,VALID,0.687872,
2004-06-24, 02:17:00,VALID,918.142,VALID,0,VALID,100,VALID,-0.0679233,VALID,16.8568,VALID,146,VALID,0.551054,
2004-06-24, 02:18:00,VALID,918.133,VALID,0,VALID,100,VALID,-0.0509425,VALID,16.8532,VALID,144,VALID,0.582403,
2004-06-24, 02:19:00,VALID,918.116,VALID,0,VALID,100,VALID,-0.0679233,VALID,16.8471,VALID,143,VALID,0.567472,
2004-06-24, 02:20:00,VALID,918.112,VALID,0,VALID,100,VALID,0,VALID,16.8308,VALID,140,VALID,0.44308,
2004-06-24, 02:21:00,VALID,918.094,VALID,0,VALID,100,VALID,-0.0509425,VALID,16.8274,VALID,136,VALID,0.572976,
2004-06-24, 02:22:00,VALID,918.074,VALID,0,VALID,100,VALID,-0.0339617,VALID,16.8276,VALID,120,VALID,0.910764,
2004-06-24, 02:23:00,VALID,918.061,VALID,0,VALID,100,VALID,-0.0849042,VALID,16.8566,VALID,120,VALID,0.955452,
2004-06-24, 02:24:00,VALID,918.042,VALID,0,VALID,100,VALID,-0.0509425,VALID,16.8882,VALID,120,VALID,1.01228,
2004-06-24, 02:25:00,VALID,918.044,VALID,0,VALID,100,VALID,-0.0679233,VALID,16.9308,VALID,123,VALID,0.919271,
2004-06-24, 02:26:00,VALID,918.032,VALID,0,VALID,100,VALID,-0.0679233,VALID,16.9667,VALID,123,VALID,0.865767,
2004-06-24, 02:27:00,VALID,918.015,VALID,0,VALID,100,VALID,-0.0849042,VALID,16.9889,VALID,122,VALID,0.740141,
2004-06-24, 02:28:00,VALID,918.021,VALID,0,VALID,99.6951,VALID,-0.0849042,VALID,16.999,VALID,121,VALID,0.615057,
2004-06-24, 02:29:00,VALID,918.001,VALID,0,VALID,99.367,VALID,-0.0849042,VALID,16.934,VALID,119,VALID,0.67359,
2004-06-24, 02:30:00,VALID,917.987,VALID,0,VALID,99.3759,VALID,-0.0679233,VALID,16.9087,VALID,120,VALID,1.05755,
2004-06-24, 02:31:00,VALID,917.966,VALID,0,VALID,99.4853,VALID,-0.0509425,VALID,16.9147,VALID,126,VALID,1.51722,
2004-06-24, 02:32:00,VALID,917.943,VALID,0,VALID,99.5743,VALID,0,VALID,16.9082,VALID,129,VALID,1.70549,
2004-06-24, 02:33:00,VALID,917.921,VALID,0,VALID,99.4293,VALID,-0.0849042,VALID,16.8953,VALID,127,VALID,1.66239,
2004-06-24, 02:34:00,VALID,917.912,VALID,0,VALID,99.4013,VALID,-0.101885,VALID,16.8501,VALID,134,VALID,1.6029,
2004-06-24, 02:35:00,VALID,917.912,VALID,0,VALID,99.4992,VALID,-0.101885,VALID,16.8276,VALID,130,VALID,1.54855,
2004-06-24, 02:36:00,VALID,917.915,VALID,0,VALID,99.6175,VALID,0,VALID,16.7977,VALID,126,VALID,1.27433,
2004-06-24, 02:37:00,VALID,917.914,VALID,0,VALID,99.6607,VALID,-0.0169808,VALID,16.7686,VALID,120,VALID,1.24023,
2004-06-24, 02:38:00,VALID,917.908,VALID,0,VALID,99.9484,VALID,0.0169808,VALID,16.7553,VALID,118,VALID,1.55801,
2004-06-24, 02:39:00,VALID,917.897,VALID,0,VALID,100,VALID,0,VALID,16.7906,VALID,112,VALID,1.63434,
2004-06-24, 02:40:00,VALID,917.894,VALID,0,VALID,100,VALID,0,VALID,16.8648,VALID,114,VALID,1.49047,
2004-06-24, 02:41:00,VALID,917.905,VALID,0,VALID,100,VALID,0.0169808,VALID,16.9104,VALID,123,VALID,1.51544,
2004-06-24, 02:42:00,VALID,917.928,VALID,0,VALID,99.8932,VALID,-0.0169808,VALID,16.9192,VALID,129,VALID,1.21858,
2004-06-24, 02:43:00,VALID,917.934,VALID,0,VALID,99.662,VALID,0,VALID,16.9136,VALID,137,VALID,1.17969,
2004-06-24, 02:44:00,VALID,917.948,VALID,0,VALID,99.6124,VALID,0.0169808,VALID,16.907,VALID,134,VALID,1.27108,
2004-06-24, 02:45:00,VALID,917.946,VALID,0,VALID,99.5527,VALID,0.0339617,VALID,16.9168,VALID,130,VALID,1.15752,
2004-06-24, 02:46:00,VALID,917.918,VALID,0,VALID,99.428,VALID,0.0169808,VALID,16.894,VALID,119,VALID,1.18178,
2004-06-24, 02:47:00,VALID,917.914,VALID,0,VALID,99.7065,VALID,0.0339617,VALID,16.9164,VALID,115,VALID,1.31605,
2004-06-24, 02:48:00,VALID,917.912,VALID,0,VALID,99.6938,VALID,0.0169808,VALID,16.9553,VALID,128,VALID,1.29102,
2004-06-24, 02:49:00,VALID,917.901,VALID,0,VALID,99.5476,VALID,0.0339617,VALID,16.9773,VALID,131,VALID,1.1669,
2004-06-24, 02:50:00,VALID,917.892,VALID,0,VALID,99.4446,VALID,0.0169808,VALID,16.9874,VALID,131,VALID,1.23552,
2004-06-24, 02:51:00,VALID,917.891,VALID,0,VALID,99.4598,VALID,0.0169808,VALID,17.0197,VALID,125,VALID,1.3343,
2004-06-24, 02:52:00,VALID,917.89,VALID,0,VALID,99.3238,VALID,0.0509425,VALID,17.0457,VALID,110,VALID,1.06992,
2004-06-24, 02:53:00,VALID,917.885,VALID,0,VALID,99.7116,VALID,0,VALID,17.107,VALID,106,VALID,1.09319,
2004-06-24, 02:54:00,VALID,917.881,VALID,0,VALID,99.4331,VALID,0.0339617,VALID,17.1812,VALID,108,VALID,0.469122,
2004-06-24, 02:55:00,VALID,917.875,VALID,0,VALID,98.9029,VALID,0,VALID,17.2008,VALID,108,VALID,0.540365,
2004-06-24, 02:56:00,VALID,917.87,VALID,0,VALID,98.6981,VALID,0.0169808,VALID,17.1612,VALID,117,VALID,0.907965,
2004-06-24, 02:57:00,VALID,917.865,VALID,0,VALID,98.6524,VALID,0.0339617,VALID,17.181,VALID,119,VALID,0.644886,
2004-06-24, 02:58:00,VALID,917.864,VALID,0,VALID,98.6002,VALID,0.0509425,VALID,17.1681,VALID,111,VALID,0.65282,
2004-06-24, 02:59:00,VALID,917.854,VALID,0,VALID,98.295,VALID,0.0169808,VALID,17.1425,VALID,86,VALID,0.609375,
2004-06-24, 03:00:00,VALID,917.83,VALID,0,VALID,98.5188,VALID,0.0339617,VALID,17.0973,VALID,83,VALID,0.74235,
2004-06-24, 03:01:00,VALID,917.842,VALID,0,VALID,98.9652,VALID,0.0339617,VALID,17.1386,VALID,83,VALID,0.613758,
2004-06-24, 03:02:00,VALID,917.843,VALID,0,VALID,99.3479,VALID,0.0169808,VALID,17.184,VALID,83,VALID,0.654535,
2004-06-24, 03:03:00,VALID,917.834,VALID,0,VALID,99.5361,VALID,0.0339617,VALID,17.2686,VALID,86,VALID,0.64826,
2004-06-24, 03:04:00,VALID,917.82,VALID,0,VALID,99.0834,VALID,0.0509425,VALID,17.2978,VALID,112,VALID,0.931463,
2004-06-24, 03:05:00,VALID,917.804,VALID,0,VALID,98.6778,VALID,0.0169808,VALID,17.2488,VALID,131,VALID,1.38337,
2004-06-24, 03:06:00,VALID,917.776,VALID,0,VALID,98.9092,VALID,0.0339617,VALID,17.2485,VALID,132,VALID,1.37285,
2004-06-24, 03:07:00,VALID,917.737,VALID,0,VALID,98.9219,VALID,0.0169808,VALID,17.3038,VALID,130,VALID,1.1962,
2004-06-24, 03:08:00,VALID,917.719,VALID,0,VALID,98.6714,VALID,0.0339617,VALID,17.3195,VALID,122,VALID,1.11477,
2004-06-24, 03:09:00,VALID,917.698,VALID,0,VALID,98.5417,VALID,0.0169808,VALID,17.3133,VALID,129,VALID,1.03052,
2004-06-24, 03:10:00,VALID,917.662,VALID,0,VALID,98.8647,VALID,0.0339617,VALID,17.3421,VALID,123,VALID,1.11771,
2004-06-24, 03:11:00,VALID,917.648,VALID,0,VALID,98.8978,VALID,0.0169808,VALID,17.3907,VALID,119,VALID,1.21151,
2004-06-24, 03:12:00,VALID,917.618,VALID,0,VALID,98.6841,VALID,0.0339617,VALID,17.4133,VALID,119,VALID,1.01079,
2004-06-24, 03:13:00,VALID,917.589,VALID,0,VALID,97.9161,VALID,0.0339617,VALID,17.3843,VALID,106,VALID,0.583705,
2004-06-24, 03:14:00,VALID,917.575,VALID,0,VALID,97.9275,VALID,0.0339617,VALID,17.3195,VALID,96,VALID,0.63058,
2004-06-24, 03:15:00,VALID,917.554,VALID,0,VALID,98.5366,VALID,0.0509425,VALID,17.3193,VALID,96,VALID,0.69779,
2004-06-24, 03:16:00,VALID,917.537,VALID,0,VALID,98.8278,VALID,0.0169808,VALID,17.3617,VALID,96,VALID,0.708984,
2004-06-24, 03:17:00,VALID,917.532,VALID,0,VALID,98.248,VALID,0.0339617,VALID,17.3228,VALID,108,VALID,0.799293,
2004-06-24, 03:18:00,VALID,917.527,VALID,0,VALID,98.1933,VALID,0.0849042,VALID,17.2257,VALID,125,VALID,1.52251,
2004-06-24, 03:19:00,VALID,917.525,VALID,0,VALID,98.9842,VALID,0.0339617,VALID,17.2582,VALID,122,VALID,1.50036,
2004-06-24, 03:20:00,VALID,917.532,VALID,0,VALID,98.618,VALID,0.0169808,VALID,17.2391,VALID,128,VALID,0.99272,
2004-06-24, 03:21:00,VALID,917.527,VALID,0,VALID,98.4743,VALID,0,VALID,17.1814,VALID,131,VALID,1.38227,
2004-06-24, 03:22:00,VALID,917.524,VALID,0,VALID,98.7515,VALID,0,VALID,17.1487,VALID,129,VALID,1.30033,
2004-06-24, 03:23:00,VALID,917.518,VALID,0,VALID,98.5799,VALID,0.0339617,VALID,17.1165,VALID,128,VALID,1.17569,
2004-06-24, 03:24:00,VALID,917.511,VALID,0,VALID,98.8762,VALID,0.0169808,VALID,17.0711,VALID,128,VALID,1.34854,
2004-06-24, 03:25:00,VALID,917.486,VALID,0,VALID,99.311,VALID,0.0339617,VALID,17.104,VALID,123,VALID,1.2939,
2004-06-24, 03:26:00,VALID,917.496,VALID,0,VALID,99.3823,VALID,0.101885,VALID,17.1132,VALID,117,VALID,1.1131,
2004-06-24, 03:27:00,VALID,917.462,VALID,0,VALID,99.5616,VALID,0.0339617,VALID,17.116,VALID,120,VALID,1.04669,
2004-06-24, 03:28:00,VALID,917.446,VALID,0,VALID,99.4357,VALID,0.0169808,VALID,17.1257,VALID,120,VALID,1.05313,
2004-06-24, 03:29:00,VALID,917.438,VALID,0,VALID,99.1686,VALID,0.0169808,VALID,17.1003,VALID,98,VALID,0.753646,
2004-06-24, 03:30:00,VALID,917.427,VALID,0,VALID,98.8393,VALID,0.0339617,VALID,17.0096,VALID,86,VALID,0.756669,
2004-06-24, 03:31:00,VALID,917.421,VALID,0,VALID,99.5768,VALID,0.0169808,VALID,17.0362,VALID,84,VALID,0.837754,
2004-06-24, 03:32:00,VALID,917.41,VALID,0,VALID,100,VALID,0.0339617,VALID,17.1386,VALID,88,VALID,1.16297,